Inquirer Daily News

Weather

Get conditions and forecasts for any City, State, ZIP code or Country:  
Northeast Philadelphia, PA
on Thursday, November 22, 2012

Thursday
Previous Day Next Day
Daily Summary
 ActualAverage (KTTN)Record (KTTN)
Temperature
Mean Temperature °F 44°F  
Max Temperature 55°F 52°F 72°F (1931)
Min Temperature 34°F 36°F 15°F (1880)
Degree Days
Heating Degree Days 20 21  
Month to date heating degree days 396  
Since 1 July heating degree days 793  
Cooling Degree Days 0 0  
Month to date cooling degree days 0  
Year to date cooling degree days 965  
Moisture
Dew Point 33°F   
Average Humidity 68    
Maximum Humidity 89    
Minimum Humidity 51    
Precipitation
Precipitation 0.00 in 0.11 in 1.73 in (2011)
Month to date precipitation 2.31  
Year to date precipitation 41.74  
Wind
Wind Speed 3 mph   
Max Wind Speed 9 mph   
Max Gust Speed mph   
Visibility 10 miles   
Events     

Key: T is trace of precipitation, MM is missing value
Source: NWS Daily Summary
Time(EST)TemperatureDew PointHumidity Pressure Visibility Wind DirectionWind SpeedGust SpeedPrecipitationEvents Conditions
12:54 AM 35.1°F 27.0°F 72% 30.24 in 10.0 miles Calm Calm - N/A   Clear
1:54 AM 35.1°F 24.1°F 64% 30.25 in 10.0 miles North 4.6 mph - N/A   Clear
2:54 AM 36.0°F 25.0°F 64% 30.25 in 10.0 miles North 3.5 mph - N/A   Clear
3:54 AM 34.0°F 25.0°F 70% 30.24 in 10.0 miles North 5.8 mph - N/A   Clear
4:54 AM 35.1°F 26.1°F 70% 30.25 in 10.0 miles NNE 4.6 mph - N/A   Clear
5:54 AM 36.0°F 26.1°F 67% 30.26 in 10.0 miles NNE 4.6 mph - N/A   Clear
6:54 AM 34.0°F 28.0°F 79% 30.26 in 10.0 miles North 5.8 mph - N/A   Clear
7:54 AM 39.0°F 30.9°F 73% 30.27 in 10.0 miles North 5.8 mph - N/A   Clear
8:54 AM 45.0°F 34.0°F 65% 30.29 in 10.0 miles NNE 6.9 mph - N/A   Clear
9:54 AM 48.9°F 37.0°F 64% 30.29 in 10.0 miles NE 9.2 mph - N/A   Clear
10:54 AM 51.1°F 37.9°F 61% 30.28 in 10.0 miles ENE 4.6 mph - N/A   Clear
11:54 AM 53.1°F 37.9°F 57% 30.26 in 10.0 miles East 4.6 mph - N/A   Clear
12:54 PM 55.0°F 39.0°F 55% 30.23 in 10.0 miles East 5.8 mph - N/A   Clear
1:54 PM 55.0°F 37.9°F 53% 30.22 in 10.0 miles Variable 4.6 mph - N/A   Clear
2:54 PM 55.9°F 37.9°F 51% 30.20 in 10.0 miles Calm Calm - N/A   Clear
3:54 PM 55.0°F 37.0°F 51% 30.20 in 10.0 miles Calm Calm - N/A   Clear
4:54 PM 50.0°F 36.0°F 59% 30.20 in 10.0 miles Calm Calm - N/A   Clear
5:54 PM 46.0°F 36.0°F 68% 30.21 in 10.0 miles Calm Calm - N/A   Clear
6:54 PM 44.1°F 36.0°F 73% 30.20 in 10.0 miles Calm Calm - N/A   Clear
7:54 PM 42.1°F 35.1°F 76% 30.20 in 10.0 miles Calm Calm - N/A   Clear
8:54 PM 39.9°F 34.0°F 79% 30.20 in 10.0 miles Calm Calm - N/A   Clear
9:54 PM 39.0°F 33.1°F 79% 30.19 in 10.0 miles Calm Calm - N/A   Clear
10:54 PM 37.0°F 33.1°F 86% 30.17 in 10.0 miles Calm Calm - N/A   Clear
11:54 PM 37.0°F 34.0°F 89% 30.17 in 7.0 miles Calm Calm - N/A   Clear
Astronomy
Sunrise:06:53 AM (EST) Moon Rise:01:23 PM (EST)11/22
Sunset:04:38 PM (EST) Moon Set:01:11 AM (EST)11/22
Moon Phase
Nov. 22 Nov. 28 Dec. 06 Dec. 13 Dec. 20

Copyright © 2014 The Weather Underground, Inc.